Regional Weather Roundup
Issued by NWS Northern Indiana

Home | Current Version | Previous Version | Graphics & Text | Print | Product List | Glossary On
Versions: 1 2 3 4 5 6 7 8 9 10 11 12 13 14 15 16 17 18 19 20 21 22 23 24 25 26 27 28 29 30 31 32 33 34 35 36 37 38 39 40 41 42 43 44 45 46 47 48 49 50
000
ASUS43 KIWX 040410
RWRIWX

KIWX WEATHER ROUNDUP
NATIONAL WEATHER SERVICE NORTHERN INDIANA
1100 PM EST TUE MAR 03 2015

NOTE: "FAIR" INDICATES FEW OR NO CLOUDS BELOW 12,000 FEET WITH NO
SIGNIFICANT WEATHER AND/OR OBSTRUCTIONS TO VISIBILITY.

* THESE STATIONS ARE NOT UNDER NWS QUALITY CONTROL. THEY ALSO MAY NOT
  REPORT WEATHER SUCH AS PRECIPITATION OR FOG.

INZ001>027-040500-
NORTHERN INDIANA

CITY           SKY/WX    TMP DP  RH WIND       PRES   REMARKS
GARY*          CLOUDY    35  24  64 W13G22    29.87R WCI  26
VALPARAISO     CLOUDY    33  28  81 W13       29.84R WCI  24
MICHIGAN CITY* CLOUDY    32  27  80 W8G17     29.84S WCI  25
LAPORTE*       CLOUDY    35  30  80 W8G17     29.84R WCI  29
KNOX*            N/A     32  25  74 W10       29.83R WCI  24
SOUTH BEND     CLOUDY    34  34 100 W9        29.84R WCI  27
GOSHEN         CLOUDY    34  29  82 W13       29.81R WCI  25
MONTICELLO*    CLOUDY    33  32  95 W9        29.85S WCI  26
LOGANSPORT*    CLOUDY    34  32  93 W10G16    29.86R WCI  26
ROCHESTER*     CLOUDY    36  32  87 W9        29.83S
WARSAW*        CLOUDY    34  32  93 W16       29.82R WCI  23
ANGOLA*        CLOUDY    34  28  80 W9        29.76S WCI  26
FORT WAYNE     CLOUDY    35  31  85 W18       29.81S WCI  24
HUNTINGTON*    CLOUDY    34  29  82 W9        29.82R WCI  26
PERU/GRISSOM   CLOUDY    34  32  91 W14       29.83R WCI  25
MARION*        CLOUDY    33  32  94 W10       29.86R WCI  25

$$
INZ028>050-040500-
CENTRAL INDIANA

CITY           SKY/WX    TMP DP  RH WIND       PRES   REMARKS
LAFAYETTE      CLOUDY    34  31  88 W8        29.87R WCI  27
KOKOMO*        CLOUDY    34  32  93 W12       29.86R WCI  25
MUNCIE*        CLOUDY    36  33  89 W12       29.85R
INDIANAPOLIS   LGT RAIN  36  34  92 SW9       29.88R FOG

$$
MIZ043>046-050>051-056>058-064>065-071>073-077>080-040500-
SOUTHWEST LOWER MICHIGAN

CITY           SKY/WX    TMP DP  RH WIND       PRES   REMARKS
BATTLE CREEK   CLOUDY    33  27  78 W16       29.78R WCI  23
BENTON HARBOR  CLOUDY    32  29  88 W12       29.82R WCI  23
COLDWATER*     CLOUDY    33  28  81 W17       29.77R WCI  22
HILLSDALE*     CLOUDY    34  30  85 W20       29.75R WCI  22
HOLLAND        CLOUDY    32  24  72 NW10      29.81R WCI  24
GRAND RAPIDS   CLOUDY    30  23  75 W13       29.78R WCI  20
KALAMAZOO      CLOUDY    33  26  75 NW15G23   29.79R WCI  23
STURGIS*       CLOUDY    34  28  80 W10G22    29.79R WCI  26
THREE RIVERS*  MOCLDY    33  28  82 W14G21    29.80R WCI  23

$$
OHZ001>008-015>018-024>025-040500-
NORTHWEST OHIO

CITY           SKY/WX    TMP DP  RH WIND       PRES   REMARKS
WAUSEON*       CLOUDY    36  32  87 W13       29.77R
DEFIANCE       CLOUDY    36  31  82 VRB7G17   29.79R
FINDLAY        CLOUDY    36  32  85 W15       29.78R
TOLEDO EXPRESS CLOUDY    35  30  82 W14       29.76R WCI  26
TOLEDO METCALF CLOUDY    36  30  79 W16       29.78R
LIMA           CLOUDY    36  32  85 W17       29.80R

$$
AND FOR LAKE MICHIGAN COASTAL AND OPEN LAKE BUOY OBSERVATIONS

STATION/POSITION TEMP    WIND        PRES    VSBY  WAVE
                 AIR SEA DIR/SP/G                  HT/PER
                 (F)     (DEG/KT/KT) (MB)    (MI)  (FT/S)
CALUMET HARBOR    33     260/  7/ 16 1010.0R
MICHIGAN CITY     33     250/ 12/ 14   N/A
SAINT JOSEPH      32     250/  7/ 10 1011.2R

$$
&&



USA.gov is the U.S. government's official web portal to all federal, state and local government web resources and services.